This is the latest recevied weather packets stored in our database for station/object IU2EBF-4. If no packets are shown the sender has not sent any weather packets the latest 10 day(s).
| Time | Temp. | Humidity | Pressure | Rain* | Wind** | Luminosity | Snow |
|---|---|---|---|---|---|---|---|
| 1777188313 | 18.89° C | 38% | 1044 hPa | - | - | - | - |
| 1777187588 | 18.33° C | 39% | 1044 hPa | - | - | - | - |
| 1777186863 | 17.22° C | 39% | 1044 hPa | - | - | - | - |
| 1777186139 | 16.67° C | 39% | 1043 hPa | - | - | - | - |
| 1777185410 | 16.11° C | 39% | 1043 hPa | - | - | - | - |
| 1777184685 | 15° C | 40% | 1043 hPa | - | - | - | - |
| 1777183960 | 14.44° C | 40% | 1043 hPa | - | - | - | - |
| 1777183235 | 13.89° C | 40% | 1043 hPa | - | - | - | - |
| 1777182511 | 12.78° C | 37% | 1043 hPa | - | - | - | - |
| 1777181786 | 11.67° C | 40% | 1043 hPa | - | - | - | - |
| 1777181061 | 11.67° C | 40% | 1043 hPa | - | - | - | - |
| 1777180336 | 11.11° C | 39% | 1043 hPa | - | - | - | - |
| 1777179611 | 10.56° C | 34% | 1043 hPa | - | - | - | - |
| 1777178886 | 9.44° C | 36% | 1042 hPa | - | - | - | - |
| 1777178162 | 8.89° C | 35% | 1042 hPa | - | - | - | - |
| 1777177437 | 8.89° C | 38% | 1042 hPa | - | - | - | - |
| 1777176712 | 8.89° C | 38% | 1042 hPa | - | - | - | - |
| 1777175987 | 10° C | 33% | 1042 hPa | - | - | - | - |
| 1777175262 | 10° C | 32% | 1042 hPa | - | - | - | - |
| 1777174537 | 10° C | 30% | 1042 hPa | - | - | - | - |
| 1777173813 | 8.89° C | 35% | 1042 hPa | - | - | - | - |
| 1777173088 | 8.33° C | 43% | 1042 hPa | - | - | - | - |
| 1777172363 | 8.33° C | 43% | 1042 hPa | - | - | - | - |
| 1777171638 | 8.89° C | 43% | 1042 hPa | - | - | - | - |
| 1777170913 | 8.33° C | 43% | 1042 hPa | - | - | - | - |
* Rain since midnight (hover to see other rain measurements)
** Current wind speed in m/s (hover to see current wind gust speed)